This is the latest recevied weather packets stored in our database for station/object KE8GJZ-2. If no packets are shown the sender has not sent any weather packets the latest 10 day(s).
| Time | Temp. | Humidity | Pressure | Rain* | Wind** | Luminosity | Snow |
|---|---|---|---|---|---|---|---|
| 1777492737 | 9.44° C | 98% | 1011.6 hPa | 0 mm | - | 92 W/m² | - |
| 1777492437 | 9.44° C | 98% | 1011.6 hPa | 0 mm | - | 104 W/m² | - |
| 1777492135 | 10° C | 98% | 1011.5 hPa | 0 mm | - | 106 W/m² | - |
| 1777491831 | 10° C | 97% | 1011.6 hPa | 0 mm | - | 44 W/m² | - |
| 1777491528 | 10° C | 98% | 1011.4 hPa | 0 mm | - | 62 W/m² | - |
| 1777491225 | 10° C | 98% | 1011.2 hPa | 0 mm | - | 92 W/m² | - |
| 1777490916 | 9.44° C | 98% | 1011.3 hPa | 0 mm | - | 151 W/m² | - |
| 1777490612 | 10° C | 98% | 1011.4 hPa | 0 mm | - | 186 W/m² | - |
| 1777490308 | 10° C | 98% | 1011.4 hPa | 0 mm | - | 316 W/m² | - |
| 1777490006 | 10° C | 98% | 1011.2 hPa | 0 mm | - | 339 W/m² | - |
| 1777489704 | 10° C | 99% | 1011.3 hPa | 0 mm | - | 303 W/m² | - |
| 1777489400 | 9.44° C | 99% | 1011.2 hPa | 0 mm | - | 241 W/m² | - |
| 1777489097 | 10° C | 99% | 1011.1 hPa | 0 mm | - | 177 W/m² | - |
| 1777488794 | 10° C | 99% | 1011.5 hPa | 0 mm | - | 94 W/m² | - |
| 1777488492 | 10° C | 99% | 1011.5 hPa | 0 mm | - | 113 W/m² | - |
| 1777488189 | 10° C | 99% | 1011.3 hPa | 0 mm | - | 76 W/m² | - |
| 1777487887 | 10° C | 99% | 1011.3 hPa | 0 mm | - | 83 W/m² | - |
| 1777487585 | 10° C | 99% | 1011.2 hPa | 0 mm | - | 145 W/m² | - |
| 1777487281 | 10° C | 99% | 1011.3 hPa | 0 mm | - | 235 W/m² | - |
| 1777486978 | 10° C | 99% | 1011.3 hPa | 0 mm | - | 182 W/m² | - |
| 1777486675 | 10° C | 99% | 1011.2 hPa | 0 mm | - | 144 W/m² | - |
| 1777486373 | 10° C | 99% | 1011.2 hPa | 0 mm | - | 178 W/m² | - |
| 1777486070 | 10° C | 99% | 1011.2 hPa | 0 mm | - | 125 W/m² | - |
| 1777485766 | 10° C | 99% | 1011.3 hPa | 0 mm | - | 73 W/m² | - |
| 1777485462 | 10° C | 99% | 1011.3 hPa | 0 mm | - | 141 W/m² | - |
* Rain latest hour (hover to see other rain measurements)
** Current wind speed in m/s (hover to see current wind gust speed)